Unsubscribe Automatically:

[TLELIST] 0 HST 1 20580U 90037B 26263.03786471 .00004678 00000-0 14109-3 0 9992 2 20580 28.4728 151.8229 0001904 113.7893 246.2903 15.31699045803125 0 ISS (ZARYA) 1 25544U 98067A 26263.14255447 .00007470 00000-0 14267-3 0 9992 2 25544 51.6307 190.1401 0004820 160.6694 199.4478 15.49188396586472 0 CXO 1 25867U 99040B 26264.57838639 .00000964 00000-0 00000-0 0 9998 2 25867 57.4713 114.1840 7687429 309.3021 0.4302 0.37796833 17684